Home   Weather   Rockford   Past weeks

Flag for USA Past Weather in Rockford, Illinois, USA — Yesterday and Last 2 Weeks

44 °F


Feels Like: 39 °F
Forecast: 42 / 51 °F
Wind: 10 mph from Northwest

Location: Greater Rockford Airport

Current Time: Oct 27, 2016 at 11:57:51 AM

Latest Report: Oct 27, 2016 at 10:54 AM

Visibility: 10 mi

Pressure: 30.29 "Hg

Humidity: 79%

Dew Point: 38 °F

Location of RockfordLocation

Past Weather in Rockford — Graph


Rockford Temperature Yesterday

Maximum temperature yesterday: 48 °F (at 7:54 PM)
Minimum temperature yesterday: 45 °F (at 2:02 AM)
Average temperature yesterday: 46 °F

High & Low Weather Summary for the Past Weeks

High83 °F (Oct 17, 3:54 PM)97% (Oct 13, 7:54 AM)30.48 "Hg (Oct 13, 7:54 AM)
Low36 °F (Oct 13, 7:54 AM)21% (Oct 23, 4:54 PM)29.40 "Hg (Oct 17, 5:54 PM)
Average54 °F72%30.08 "Hg
* Reported Oct 12 9:54 AM — Oct 27 9:54 AM, Rockford, Weather by CustomWeather, © 2016

Note: Actual official high and low records may vary slightly from our data, if they occured in-between our weather recording intervals... More about our weather records


Rockford Weather History for the Previous 24 Hours

Scroll right to see more
Time TempWeatherWind HumidityBarometerVisibility
9:54 AM
Thu, Oct 27
44 °FOvercast.12 mph79%30.26 "Hg10 mi
8:54 AM43 °FOvercast.12 mph86%30.26 "Hg9 mi
7:54 AM44 °FOvercast.12 mph82%30.24 "Hg8 mi
6:54 AM44 °FMostly cloudy.12 mph89%30.20 "Hg8 mi
5:54 AM45 °FDrizzle. Fog.12 mph93%30.18 "Hg4 mi
4:54 AM46 °FLow clouds.8 mph89%30.16 "Hg7 mi
3:54 AM46 °FLow clouds.10 mph93%30.13 "Hg8 mi
2:54 AM47 °FDrizzle. Fog.14 mph93%30.12 "Hg4 mi
1:54 AM48 °FLow clouds.8 mph93%30.10 "Hg8 mi
12:54 AM48 °FDrizzle. Fog.9 mph93%30.08 "Hg3 mi
11:54 PM
Wed, Oct 26
48 °FDrizzle. Fog.9 mph93%30.06 "Hg4 mi
10:54 PM48 °FFog.8 mph93%30.06 "Hg4 mi
9:54 PM48 °FFog.6 mph93%30.04 "Hg5 mi
9:01 PM48 °FDrizzle. Fog.7 mph93%30.02 "Hg3 mi
7:54 PM48 °FDrizzle. Fog.6 mph93%30.03 "Hg1 mi
6:54 PM47 °FDrizzle. Fog.No wind97%30.01 "Hg1 mi
5:54 PM47 °FDrizzle. Fog.7 mph97%30.00 "Hg1 mi
4:54 PM47 °FDrizzle. Fog.8 mph93%30.00 "Hg2 mi
3:54 PM47 °FDrizzle. Fog.8 mph93%30.02 "Hg1 mi
2:54 PM46 °FDrizzle. Fog.10 mph96%30.03 "Hg1 mi
1:54 PM46 °FLight rain. More clouds than sun.12 mph93%30.04 "Hg3 mi
12:54 PM45 °FLight rain. Low clouds.10 mph93%30.06 "Hg2 mi
11:54 AM45 °FLight rain. Overcast.8 mph93%30.09 "Hg3 mi
11:00 AM45 °FLight rain. Cloudy.12 mph90%30.10 "Hg2 mi
Weather by CustomWeather, © 2016

See weather overviewHow to use our weather pages